User: anonymous   Login
Location: Unspecified
(0.0000°N, 0.0000°E)
Time: 06:57:20
(UTC+00:00)
Language:

USA 234 - Orbit

View from above orbital plane
View from above orbital plane
View from above satellite
View from above satellite

Ground track
Ground track

The orbit data is extracted from the following two-line orbital elements,

1 38109U 12014A   17199.00942890 0.00000000  00000-0  00000-0 0    01
2 38109 123.0006  90.9568 0004000 180.7902 179.2098 13.41416039    01
Epoch (UTC): 18 July 2017 00:13:34
Eccentricity: 0.0004000
inclination: 123.0006°
perigee height: 1101 km
apogee height: 1107 km
right ascension of ascending node: 90.9568°
argument of perigee: 180.7902°
revolutions per day: 13.41416039
mean anomaly at epoch: 179.2098°
orbit number at epoch: 0

The dashed part of the orbit path shows where the satellite is in the earth's shadow,  

DLR